SWA2453 KSAT-KMIA

Flight info

Callsign SWA2453
Flight time N/A
Altitude 35000
Route SNIDR2 MOLLR GIRLY POLND LEV Y290 DOWRY FROGZ5
Aircraft B738/M-SDE2E3FGHIRWXY/LB1

Departure

Time 2026-04-26 19:22
Airport San Antonio International Airport (KSAT)

Arrival

Time N/A
Airport Miami International Airport (KMIA)
Time Latitude Longitude Altitude Speed Heading
2026-04-26 18:47 29.52612 -98.47068 789 ft 0 kts 328°
2026-04-26 19:05 29.52594 -98.47054 795 ft 4 kts 329°
2026-04-26 19:05 29.52571 -98.47047 814 ft 4 kts 15°
2026-04-26 19:05 29.52548 -98.47060 770 ft 3 kts 41°
2026-04-26 19:06 29.52530 -98.47079 788 ft 4 kts 42°
2026-04-26 19:06 29.52526 -98.47082 788 ft 1 kts 42°
2026-04-26 19:09 29.52531 -98.47071 782 ft 4 kts 72°
2026-04-26 19:09 29.52546 -98.47028 783 ft 7 kts 44°
2026-04-26 19:09 29.52567 -98.46990 783 ft 3 kts 86°
2026-04-26 19:10 29.52567 -98.46988 783 ft 0 kts 89°
2026-04-26 19:11 29.52560 -98.46966 783 ft 5 kts 115°
2026-04-26 19:11 29.52559 -98.46929 783 ft 5 kts 68°
2026-04-26 19:12 29.52583 -98.46902 784 ft 5 kts 41°
2026-04-26 19:12 29.52607 -98.46877 785 ft 5 kts 41°
2026-04-26 19:12 29.52636 -98.46849 786 ft 7 kts 40°
2026-04-26 19:12 29.52678 -98.46808 787 ft 9 kts 39°
2026-04-26 19:13 29.52709 -98.46790 788 ft 5 kts 23°
2026-04-26 19:13 29.52732 -98.46779 787 ft 6 kts 13°
2026-04-26 19:13 29.52776 -98.46814 787 ft 10 kts 311°
2026-04-26 19:13 29.52841 -98.46897 787 ft 10 kts 313°
2026-04-26 19:14 29.52889 -98.46958 789 ft 10 kts 312°
2026-04-26 19:14 29.52936 -98.47018 792 ft 10 kts 311°
2026-04-26 19:14 29.52967 -98.47058 792 ft 10 kts 311°
2026-04-26 19:14 29.53000 -98.47101 792 ft 11 kts 311°
2026-04-26 19:15 29.53069 -98.47191 794 ft 11 kts 311°
2026-04-26 19:15 29.53120 -98.47257 796 ft 11 kts 311°
2026-04-26 19:15 29.53175 -98.47329 795 ft 14 kts 311°
2026-04-26 19:15 29.53268 -98.47448 794 ft 15 kts 311°
2026-04-26 19:16 29.53316 -98.47509 795 ft 15 kts 311°
2026-04-26 19:16 29.53383 -98.47596 795 ft 14 kts 311°
2026-04-26 19:16 29.53448 -98.47679 793 ft 14 kts 312°
2026-04-26 19:16 29.53509 -98.47757 795 ft 13 kts 311°
2026-04-26 19:17 29.53569 -98.47834 796 ft 13 kts 311°
2026-04-26 19:17 29.53627 -98.47909 797 ft 12 kts 311°
2026-04-26 19:17 29.53683 -98.47982 799 ft 12 kts 311°
2026-04-26 19:17 29.53738 -98.48054 802 ft 12 kts 311°
2026-04-26 19:18 29.53792 -98.48122 803 ft 11 kts 311°
2026-04-26 19:18 29.53846 -98.48191 803 ft 12 kts 312°
2026-04-26 19:18 29.53902 -98.48263 805 ft 12 kts 313°
2026-04-26 19:18 29.53956 -98.48333 806 ft 12 kts 311°
2026-04-26 19:19 29.54015 -98.48410 805 ft 14 kts 311°
2026-04-26 19:19 29.54071 -98.48482 804 ft 7 kts 311°
2026-04-26 19:19 29.54106 -98.48527 804 ft 8 kts 312°
2026-04-26 19:19 29.54144 -98.48576 804 ft 7 kts 312°
2026-04-26 19:20 29.54183 -98.48606 804 ft 6 kts 349°
2026-04-26 19:20 29.54191 -98.48606 804 ft 0 kts
2026-04-26 19:21 29.54193 -98.48606 804 ft 1 kts
2026-04-26 19:21 29.54224 -98.48593 804 ft 7 kts 32°
2026-04-26 19:21 29.54256 -98.48551 804 ft 8 kts 70°
2026-04-26 19:21 29.54213 -98.48475 804 ft 27 kts 132°
2026-04-26 19:22 29.53923 -98.48102 802 ft 97 kts 131°
2026-04-26 19:22 29.53342 -98.47354 796 ft 155 kts 132°
2026-04-26 19:22 29.52557 -98.46354 1204 ft 175 kts 134°
2026-04-26 19:22 29.51702 -98.45285 1827 ft 188 kts 135°
2026-04-26 19:23 29.50808 -98.44178 2639 ft 186 kts 134°
2026-04-26 19:23 29.49883 -98.43036 3018 ft 208 kts 134°
2026-04-26 19:23 29.48854 -98.41748 3215 ft 229 kts 133°
2026-04-26 19:23 29.47845 -98.40292 3607 ft 241 kts 115°
2026-04-26 19:24 29.47692 -98.38382 4193 ft 248 kts 76°
2026-04-26 19:24 29.48285 -98.36465 4618 ft 267 kts 71°
2026-04-26 19:24 29.49662 -98.32315 5795 ft 285 kts 72°
2026-04-26 19:25 29.50369 -98.30147 6413 ft 294 kts 71°
2026-04-26 19:25 29.50857 -98.28650 6827 ft 298 kts 70°
2026-04-26 19:25 29.51817 -98.25685 7800 ft 299 kts 70°
2026-04-26 19:25 29.52544 -98.23422 8457 ft 303 kts 70°
2026-04-26 19:26 29.53277 -98.21139 9180 ft 304 kts 70°
2026-04-26 19:26 29.54010 -98.18852 9894 ft 308 kts 71°
2026-04-26 19:26 29.54748 -98.16528 10406 ft 320 kts 70°
2026-04-26 19:26 29.55541 -98.14037 10547 ft 343 kts 70°
2026-04-26 19:27 29.56380 -98.11396 10826 ft 358 kts 70°
2026-04-26 19:27 29.57241 -98.08678 11340 ft 364 kts 70°
2026-04-26 19:27 29.58113 -98.05924 11933 ft 368 kts 69°
2026-04-26 19:27 29.58997 -98.03136 12476 ft 373 kts 70°
2026-04-26 19:28 29.59877 -98.00349 13066 ft 377 kts 70°
2026-04-26 19:28 29.60778 -97.97489 13642 ft 382 kts 70°
2026-04-26 19:28 29.61691 -97.94592 14230 ft 384 kts 69°
2026-04-26 19:28 29.62590 -97.91738 14831 ft 386 kts 69°
2026-04-26 19:29 29.63510 -97.88814 15387 ft 390 kts 69°
2026-04-26 19:29 29.64437 -97.85867 15954 ft 393 kts 69°
2026-04-26 19:29 29.65200 -97.82818 16493 ft 398 kts 79°
2026-04-26 19:29 29.65479 -97.79675 17039 ft 402 kts 89°
2026-04-26 19:30 29.65516 -97.76449 17606 ft 405 kts 90°
2026-04-26 19:30 29.65521 -97.73190 18140 ft 409 kts 90°
2026-04-26 19:30 29.65524 -97.69902 18597 ft 413 kts 90°
2026-04-26 19:30 29.65530 -97.67706 18890 ft 417 kts 89°
2026-04-26 19:31 29.65556 -97.63204 19478 ft 423 kts 89°
2026-04-26 19:31 29.65584 -97.59840 19927 ft 427 kts 89°
2026-04-26 19:31 29.65616 -97.56405 20390 ft 431 kts 89°
2026-04-26 19:31 29.65650 -97.52933 20839 ft 436 kts 89°
2026-04-26 19:32 29.65683 -97.49429 21281 ft 440 kts 89°
2026-04-26 19:32 29.65716 -97.45886 21696 ft 444 kts 89°
2026-04-26 19:32 29.65748 -97.42314 22112 ft 449 kts 89°
2026-04-26 19:32 29.65779 -97.38708 22528 ft 453 kts 89°
2026-04-26 19:33 29.65809 -97.35072 22929 ft 457 kts 89°
2026-04-26 19:33 29.65838 -97.31441 23316 ft 461 kts 89°
2026-04-26 19:33 29.65867 -97.27737 23672 ft 464 kts 89°
2026-04-26 19:33 29.65895 -97.24019 24031 ft 467 kts 89°
2026-04-26 19:34 29.65920 -97.20274 24398 ft 469 kts 89°
2026-04-26 19:34 29.65944 -97.16492 24742 ft 472 kts 89°
2026-04-26 19:34 29.65967 -97.12694 25072 ft 475 kts 89°
2026-04-26 19:34 29.65989 -97.08934 25405 ft 478 kts 89°
2026-04-26 19:35 29.66011 -97.05097 25753 ft 481 kts 89°
2026-04-26 19:35 29.66031 -97.01245 26094 ft 483 kts 89°
2026-04-26 19:35 29.66052 -96.97369 26396 ft 486 kts 89°
2026-04-26 19:35 29.66073 -96.93472 26706 ft 489 kts 89°
2026-04-26 19:36 29.66093 -96.89543 27034 ft 491 kts 89°
2026-04-26 19:36 29.66107 -96.86935 27243 ft 493 kts 89°
2026-04-26 19:36 29.66132 -96.81674 27646 ft 496 kts 89°
2026-04-26 19:36 29.66149 -96.77699 27956 ft 499 kts 89°
2026-04-26 19:37 29.66163 -96.73670 28247 ft 501 kts 89°
2026-04-26 19:37 29.66177 -96.69688 28527 ft 504 kts 89°
2026-04-26 19:37 29.66189 -96.65656 28805 ft 506 kts 89°
2026-04-26 19:37 29.66200 -96.61589 29091 ft 508 kts 89°
2026-04-26 19:38 29.66211 -96.57522 29484 ft 508 kts 89°
2026-04-26 19:38 29.66221 -96.53443 29885 ft 510 kts 89°
2026-04-26 19:38 29.66228 -96.49347 30111 ft 513 kts 89°
2026-04-26 19:38 29.66229 -96.45224 30305 ft 517 kts 89°
2026-04-26 19:39 29.66224 -96.41120 30523 ft 519 kts 89°
2026-04-26 19:39 29.66216 -96.36952 30819 ft 519 kts 89°
2026-04-26 19:39 29.66207 -96.32796 31142 ft 519 kts 88°
2026-04-26 19:39 29.66198 -96.28694 31423 ft 519 kts 88°
2026-04-26 19:40 29.66187 -96.24522 31656 ft 520 kts 88°
2026-04-26 19:40 29.66176 -96.20355 31882 ft 521 kts 88°
2026-04-26 19:40 29.66164 -96.16223 32147 ft 521 kts 88°
2026-04-26 19:40 29.66151 -96.12005 32403 ft 522 kts 88°
2026-04-26 19:41 29.66136 -96.07827 32652 ft 522 kts 88°
2026-04-26 19:41 29.66120 -96.03701 32978 ft 521 kts 88°
2026-04-26 19:41 29.66102 -95.99529 33279 ft 521 kts 87°
2026-04-26 19:41 29.66090 -95.96767 33417 ft 522 kts 87°
2026-04-26 19:42 29.66065 -95.91170 33672 ft 524 kts 87°
2026-04-26 19:42 29.66043 -95.86969 33910 ft 524 kts 87°
2026-04-26 19:42 29.66021 -95.82819 34168 ft 523 kts 87°
2026-04-26 19:42 29.65996 -95.78623 34456 ft 521 kts 87°
2026-04-26 19:43 29.65971 -95.74447 34739 ft 520 kts 87°
2026-04-26 19:43 29.65938 -95.70340 34907 ft 520 kts 88°
2026-04-26 19:43 29.65857 -95.61962 34905 ft 523 kts 88°
2026-04-26 19:44 29.65774 -95.53630 34895 ft 516 kts 88°
2026-04-26 19:44 29.65718 -95.45420 34914 ft 515 kts 87°
2026-04-26 19:45 29.65670 -95.37178 34910 ft 515 kts 87°
2026-04-26 19:45 29.65611 -95.28931 34915 ft 515 kts 87°
2026-04-26 19:46 29.65241 -95.20683 34906 ft 517 kts 92°
2026-04-26 19:46 29.64609 -95.12491 34909 ft 517 kts 92°
2026-04-26 19:47 29.64068 -95.05622 34905 ft 518 kts 92°
2026-04-26 19:47 29.63356 -94.96029 34912 ft 517 kts 92°
2026-04-26 19:48 29.62762 -94.87773 34916 ft 517 kts 92°
2026-04-26 19:48 29.62166 -94.79517 34918 ft 517 kts 92°
2026-04-26 19:49 29.61563 -94.71270 34921 ft 517 kts 92°
2026-04-26 19:49 29.60958 -94.63078 34921 ft 517 kts 92°
2026-04-26 19:50 29.60343 -94.54841 34932 ft 516 kts 92°
2026-04-26 19:50 29.59726 -94.46644 34922 ft 516 kts 92°
2026-04-26 19:51 29.59103 -94.38422 34924 ft 516 kts 92°
2026-04-26 19:51 29.58474 -94.30202 34922 ft 515 kts 92°
2026-04-26 19:52 29.57842 -94.22003 34917 ft 514 kts 92°
2026-04-26 19:52 29.57209 -94.13857 34927 ft 514 kts 92°
2026-04-26 19:53 29.56567 -94.05658 34920 ft 513 kts 92°
2026-04-26 19:53 29.55926 -93.97540 34920 ft 513 kts 92°
2026-04-26 19:54 29.55277 -93.89381 34916 ft 512 kts 92°
2026-04-26 19:54 29.54622 -93.81220 34920 ft 512 kts 92°
2026-04-26 19:55 29.53968 -93.73125 34917 ft 511 kts 92°
2026-04-26 19:55 29.53306 -93.64992 34915 ft 511 kts 92°
2026-04-26 19:56 29.52639 -93.56863 34915 ft 511 kts 92°
2026-04-26 19:56 29.51968 -93.48742 34919 ft 511 kts 92°
2026-04-26 19:57 29.51293 -93.40638 34913 ft 511 kts 92°
2026-04-26 19:57 29.50611 -93.32505 34920 ft 511 kts 92°
2026-04-26 19:58 29.49928 -93.24418 34906 ft 511 kts 92°
2026-04-26 19:58 29.49235 -93.16282 34919 ft 511 kts 92°
2026-04-26 19:59 29.48542 -93.08188 34923 ft 512 kts 92°
2026-04-26 19:59 29.47845 -93.00048 34935 ft 512 kts 92°
2026-04-26 20:00 29.47147 -92.91894 34925 ft 513 kts 92°
2026-04-26 20:00 29.46449 -92.83788 34931 ft 513 kts 92°
2026-04-26 20:01 29.45740 -92.75627 34929 ft 513 kts 92°
2026-04-26 20:01 29.45027 -92.67481 34929 ft 512 kts 92°
2026-04-26 20:02 29.44314 -92.59401 34931 ft 511 kts 92°
2026-04-26 20:02 29.43833 -92.53971 34925 ft 511 kts 92°
2026-04-26 20:03 29.42992 -92.44549 34927 ft 510 kts 92°
2026-04-26 20:03 29.42264 -92.36460 34929 ft 508 kts 92°
2026-04-26 20:04 29.41537 -92.28416 34947 ft 507 kts 92°
2026-04-26 20:04 29.40803 -92.20366 34940 ft 507 kts 92°
2026-04-26 20:05 29.40066 -92.12328 34933 ft 506 kts 92°
2026-04-26 20:05 29.39325 -92.04311 34939 ft 505 kts 92°
2026-04-26 20:06 29.38583 -91.96325 34935 ft 504 kts 93°
2026-04-26 20:06 29.37833 -91.88309 34946 ft 504 kts 92°
2026-04-26 20:07 29.37084 -91.80350 34943 ft 505 kts 93°
2026-04-26 20:07 29.36325 -91.72344 34945 ft 505 kts 93°
2026-04-26 20:08 29.35559 -91.64320 34947 ft 505 kts 93°
2026-04-26 20:08 29.34791 -91.56315 34950 ft 506 kts 93°
2026-04-26 20:09 29.34021 -91.48348 34946 ft 506 kts 92°
2026-04-26 20:09 29.33240 -91.40312 34948 ft 507 kts 93°
2026-04-26 20:10 29.32453 -91.32269 34945 ft 507 kts 93°
2026-04-26 20:10 29.31663 -91.24237 34958 ft 507 kts 93°
2026-04-26 20:11 29.30773 -91.16254 34953 ft 508 kts 95°
2026-04-26 20:12 29.29264 -91.04197 34948 ft 509 kts 95°
2026-04-26 20:12 29.28269 -90.96159 34950 ft 509 kts 94°
2026-04-26 20:13 29.27284 -90.88133 34946 ft 509 kts 94°
2026-04-26 20:13 29.26299 -90.80120 34951 ft 509 kts 94°
2026-04-26 20:14 29.25305 -90.72086 34952 ft 509 kts 95°
2026-04-26 20:14 29.24306 -90.64066 34933 ft 509 kts 95°
2026-04-26 20:15 29.23308 -90.56091 34954 ft 508 kts 95°
2026-04-26 20:15 29.22300 -90.48068 34959 ft 509 kts 95°
2026-04-26 20:16 29.21283 -90.40012 34967 ft 508 kts 95°
2026-04-26 20:16 29.20267 -90.32012 34971 ft 508 kts 95°
2026-04-26 20:17 29.19252 -90.24053 34962 ft 507 kts 95°
2026-04-26 20:17 29.18226 -90.16042 34960 ft 507 kts 95°
2026-04-26 20:18 29.16792 -90.08168 34944 ft 511 kts 109°
2026-04-26 20:18 29.14019 -90.00686 34951 ft 511 kts 112°
2026-04-26 20:19 29.11131 -89.93242 34951 ft 511 kts 112°
2026-04-26 20:19 29.08286 -89.85780 34947 ft 511 kts 112°
2026-04-26 20:20 29.05494 -89.78361 34945 ft 511 kts 112°
2026-04-26 20:20 29.02692 -89.70897 34949 ft 511 kts 112°
2026-04-26 20:21 28.99887 -89.63444 34951 ft 511 kts 112°
2026-04-26 20:21 28.97066 -89.55975 34952 ft 511 kts 112°
2026-04-26 20:22 28.94245 -89.48521 34943 ft 511 kts 112°
2026-04-26 20:22 28.91420 -89.41073 34946 ft 511 kts 112°
2026-04-26 20:23 28.88592 -89.33629 34954 ft 511 kts 112°
2026-04-26 20:23 28.85779 -89.26241 34953 ft 510 kts 112°
2026-04-26 20:24 28.82942 -89.18805 34960 ft 510 kts 112°
2026-04-26 20:24 28.80121 -89.11423 34950 ft 510 kts 112°
2026-04-26 20:25 28.77279 -89.04003 34956 ft 509 kts 112°
2026-04-26 20:25 28.74434 -88.96591 34958 ft 509 kts 112°
2026-04-26 20:26 28.71594 -88.89204 34957 ft 508 kts 112°
2026-04-26 20:26 28.68768 -88.81869 34971 ft 507 kts 112°
2026-04-26 20:27 28.65928 -88.74511 34958 ft 506 kts 112°
2026-04-26 20:27 28.63108 -88.67218 34949 ft 505 kts 112°
2026-04-26 20:28 28.60272 -88.59898 34955 ft 504 kts 112°
2026-04-26 20:28 28.57435 -88.52590 34960 ft 503 kts 112°
2026-04-26 20:29 28.54602 -88.45307 34976 ft 503 kts 112°
2026-04-26 20:29 28.51770 -88.38040 34961 ft 503 kts 112°
2026-04-26 20:30 28.48932 -88.30771 34961 ft 502 kts 112°
2026-04-26 20:30 28.46085 -88.23494 34963 ft 502 kts 112°
2026-04-26 20:31 28.43262 -88.16289 34966 ft 502 kts 112°
2026-04-26 20:31 28.40418 -88.09041 34971 ft 502 kts 112°
2026-04-26 20:32 28.37631 -88.01772 34963 ft 501 kts 108°
2026-04-26 20:32 28.35429 -87.94337 34969 ft 499 kts 105°
2026-04-26 20:33 28.33359 -87.86799 34960 ft 499 kts 105°
2026-04-26 20:33 28.31246 -87.79283 34965 ft 499 kts 105°